Theta_e
318 319 318 318 318 318 318 318 318 319 319 320 320 321 322 322 320 313 311 317 319 331 326 310 309 311 306 303 307 308 298 298 301 304 310 318 311 316 323 323 325 327 329 333 331
318 318 317 317 318 318 318 317 318 318 319 319 320 321 321 321 313 308 321 335 332 331 308 305 304 308 303 303 303 301 296 300 307 308 307 316 314 312 318 320 320 322 336 332 338
317 317 317 316 316 317 317 318 317 318 319 319 319 319 320 319 309 310 338 334 330 325 308 306 307 305 299 301 302 302 298 305 308 309 310 310 313 315 315 311 318 317 321 332 330
316 316 315 315 316 316 317 317 317 318 318 318 318 319 320 315 299 312 340 339 335 319 307 306 305 300 297 297 302 297 304 306 307 309 306 306 311 312 311 315 323 321 323 328 329
315 315 314 314 315 316 316 316 316 317 316 317 319 320 315 308 310 323 341 339 325 313 309 305 302 300 296 299 301 298 302 305 306 305 305 308 307 308 310 320 323 323 327 328 329
315 314 313 313 315 315 316 316 316 316 316 320 322 318 312 300 314 318 323 328 320 311 310 308 305 305 301 300 298 303 303 304 304 303 304 304 306 308 312 318 324 327 327 329 329
315 314 314 314 315 315 315 315 314 315 317 324 322 317 310 307 317 314 316 313 317 315 311 311 310 304 304 301 304 304 301 302 304 304 303 305 303 305 312 315 318 326 328 330 329
314 314 313 314 314 315 315 315 314 316 320 322 321 315 307 318 312 313 312 312 315 316 315 312 312 305 301 304 303 300 299 295 302 306 306 303 296 306 311 311 313 319 323 329 328
314 313 312 313 314 314 314 313 315 317 325 320 314 312 309 318 312 313 311 312 313 314 313 317 309 303 304 297 294 296 293 296 301 307 305 302 298 306 312 311 312 314 317 324 328
313 312 312 312 313 313 312 313 320 321 321 321 318 309 314 311 314 315 312 314 311 311 309 308 304 299 297 293 288 293 294 296 298 304 301 300 300 305 311 311 311 313 312 319 328
313 312 312 312 312 311 308 308 308 310 311 312 314 313 315 316 318 312 314 311 309 308 301 305 297 293 297 299 300 300 298 297 302 306 302 299 300 304 307 306 306 307 311 310 321
312 312 312 311 311 311 307 307 306 305 299 309 309 309 313 316 310 312 314 305 304 299 305 302 296 303 305 305 302 301 299 298 303 306 302 301 300 303 306 305 306 307 307 309 313
312 311 311 311 310 311 311 309 312 310 299 306 310 309 309 309 308 310 311 306 302 300 301 299 303 309 307 303 302 298 297 299 299 303 302 300 298 301 306 307 308 308 310 311 314
311 311 310 309 309 307 308 312 310 312 294 304 307 309 310 308 306 313 314 308 302 299 302 302 307 307 305 303 303 295 303 303 302 298 291 300 291 299 302 305 307 307 308 310 314
311 311 310 308 302 305 310 309 310 309 292 307 307 313 311 306 310 308 313 310 302 301 300 298 302 303 302 303 305 300 306 302 302 296 295 297 292 298 303 302 305 308 309 314 328
311 311 309 309 306 310 313 309 307 296 291 305 308 306 304 308 308 309 308 310 310 303 303 301 306 305 303 307 306 307 303 300 299 295 289 296 294 296 299 302 310 313 318 320 330
311 310 306 306 304 308 310 306 294 291 307 303 304 306 305 305 306 306 304 300 297 294 295 301 301 305 307 301 303 301 296 288 287 287 289 298 295 298 303 309 310 311 314 317 320
309 307 306 307 310 310 307 299 290 304 302 309 305 304 301 305 304 306 303 298 303 301 296 294 295 303 306 301 298 297 296 289 285 287 291 298 294 301 309 312 310 310 309 312 314
306 307 309 312 312 310 302 292 298 302 304 303 303 299 299 304 303 303 302 301 304 303 296 295 298 309 308 305 303 298 294 299 294 294 290 292 298 308 310 312 311 311 311 309 310
299 302 307 315 314 308 298 296 301 307 306 306 298 302 297 301 300 298 301 308 308 308 306 302 296 306 308 305 304 299 301 292 292 286 285 292 297 297 303 306 308 308 311 312 316
299 303 312 314 313 303 293 296 303 307 307 303 300 300 300 300 301 299 302 307 309 308 307 303 299 300 304 300 299 298 294 295 294 293 288 288 292 306 305 307 308 310 312 309 320
303 300 312 313 298 300 295 301 302 306 309 307 305 302 300 301 299 300 301 306 310 309 304 305 300 296 299 306 308 303 300 298 291 291 294 293 293 306 306 309 309 310 313 312 311
302 305 313 312 295 296 303 304 305 305 305 305 303 304 304 299 296 301 303 308 307 308 302 302 299 294 295 299 303 301 304 304 301 299 293 290 292 307 310 310 311 309 310 312 313
302 299 306 306 304 300 300 304 303 306 305 305 303 304 301 299 301 299 301 307 307 306 313 309 299 298 293 297 300 298 301 303 299 294 296 296 298 303 307 307 309 310 313 312 318
303 302 306 299 300 300 302 303 302 303 305 306 302 301 299 294 298 298 302 305 308 311 305 300 294 297 299 302 302 300 300 300 298 299 297 299 299 301 304 305 309 309 317 323 324
300 301 304 302 305 304 302 301 302 303 304 303 301 304 302 298 300 298 302 302 302 306 304 305 295 297 297 302 301 298 301 301 300 300 299 300 298 304 307 310 316 318 321 321 323
307 307 302 301 301 298 300 304 304 305 306 306 305 302 301 303 305 304 302 303 301 299 299 300 298 295 291 300 298 292 298 300 300 301 299 295 300 304 311 313 313 314 319 321 322
Wind_Speed
15 16 16 16 15 15 17 17 18 17 17 17 16 15 15 16 18 4 6 9 7 8 3 7 8 10 7 5 8 7 3 8 14 13 7 19 7 1 8 11 13 12 12 5 8
15 16 16 16 17 16 17 18 19 18 17 17 16 15 14 14 5 9 10 7 5 4 4 5 11 8 5 7 6 4 2 10 14 15 10 11 6 3 5 5 4 11 20 21 12
15 16 17 18 18 17 17 18 19 19 17 17 16 14 12 10 5 6 7 9 7 4 5 5 9 6 5 6 9 9 8 15 20 13 10 6 11 6 8 3 6 9 12 14 7
16 17 18 19 19 18 18 19 20 20 19 18 16 13 10 3 1 2 9 7 7 4 4 4 7 7 5 7 10 6 13 14 14 12 8 9 8 8 5 10 12 12 11 8 7
16 18 19 20 20 19 19 19 20 20 19 16 13 10 4 3 11 7 9 7 4 3 5 6 7 6 7 7 8 6 9 10 12 9 8 9 7 7 8 9 9 9 12 12 10
16 18 19 20 20 20 19 19 18 18 16 13 9 4 2 5 7 12 10 7 7 6 7 8 10 11 8 7 5 8 10 9 8 8 7 6 8 6 12 8 16 13 14 16 15
15 17 19 20 21 21 20 20 19 17 14 11 2 4 5 15 6 5 9 7 8 9 9 9 11 3 7 10 8 12 10 10 12 10 10 7 10 8 12 7 12 21 17 17 17
16 17 20 21 22 22 22 21 19 18 12 4 2 5 8 7 4 9 6 8 8 7 7 8 9 6 3 8 10 8 7 4 15 13 12 7 11 14 11 4 11 11 14 18 17
16 18 20 22 23 23 23 25 19 13 7 3 3 3 9 3 4 8 7 7 7 5 6 7 6 3 8 5 7 5 9 10 15 19 7 9 9 15 11 8 10 9 11 12 16
17 19 21 23 24 23 26 23 4 5 5 7 7 5 8 4 2 2 7 7 6 6 6 5 3 3 4 1 6 9 7 8 7 10 4 8 10 7 9 7 8 9 9 12 17
18 20 22 24 25 21 15 6 5 2 3 8 2 6 15 4 4 3 4 7 7 3 5 8 3 7 13 12 13 9 9 8 8 14 7 4 3 7 9 8 8 9 7 8 15
19 20 23 25 27 25 3 4 5 6 11 13 18 20 20 6 3 8 6 3 4 6 7 6 9 14 11 11 9 10 5 8 10 12 9 11 7 7 9 10 9 9 10 9 8
17 20 24 27 29 9 6 4 7 6 4 11 12 10 13 8 9 10 10 8 5 8 10 8 13 11 12 6 8 8 6 7 9 12 9 8 9 11 13 9 10 10 10 8 8
18 20 23 30 5 7 5 8 7 5 3 6 6 4 5 2 6 15 8 7 6 8 8 8 11 12 6 5 2 4 11 9 8 5 3 5 11 17 11 12 14 11 10 10 8
18 19 22 11 7 6 7 8 8 4 4 7 7 5 6 7 1 8 13 5 8 8 4 12 10 10 7 7 4 7 7 7 5 7 8 9 4 13 15 16 10 9 6 6 13
18 18 18 4 3 10 13 9 4 2 5 5 7 7 6 9 8 4 6 7 5 8 11 11 12 7 4 3 5 6 4 7 7 3 5 13 6 15 11 7 9 7 8 9 9
20 21 12 7 6 9 10 5 2 3 3 5 3 10 12 8 10 9 8 5 4 3 7 10 16 16 7 3 3 5 3 4 5 3 10 7 4 17 12 4 5 8 7 6 11
20 26 9 9 8 10 4 2 3 7 9 3 3 7 7 5 7 10 8 6 10 8 6 6 11 4 10 9 8 3 7 6 4 4 8 6 6 8 9 4 8 7 9 9 7
23 4 4 6 13 5 1 2 3 7 11 7 7 3 8 6 0 4 10 10 9 10 8 2 8 12 9 3 8 5 4 8 1 5 5 5 11 7 13 18 13 16 12 3 3
6 5 6 5 6 1 0 5 4 8 8 8 5 6 7 6 6 3 3 5 2 4 7 4 5 5 9 5 4 7 5 5 4 2 6 6 3 3 10 9 11 14 17 13 6
3 3 2 8 4 0 3 7 7 12 9 8 7 7 11 10 12 6 5 7 12 8 6 7 3 9 7 4 4 5 3 3 4 4 4 3 7 7 6 7 8 4 12 6 2
4 3 3 4 2 4 4 5 3 5 6 3 3 4 5 10 7 9 8 5 8 8 5 1 0 3 7 13 13 8 6 6 6 7 4 5 8 5 4 9 13 11 14 11 5
4 3 1 3 3 4 7 12 12 4 6 4 4 6 8 6 6 7 9 6 4 5 4 5 4 4 8 8 6 6 10 7 2 3 4 3 8 7 4 4 5 7 8 11 13
4 2 1 1 3 1 5 8 6 9 3 4 6 6 7 7 7 6 10 5 2 4 8 5 0 2 4 10 6 11 18 17 3 2 6 5 8 9 6 6 5 1 5 6 6
4 5 2 4 5 7 6 6 10 6 6 3 3 5 6 5 7 8 9 10 7 4 4 6 2 4 6 11 19 13 18 20 15 9 6 9 8 7 7 6 7 8 5 12 12
3 4 6 4 4 4 6 3 6 10 6 4 6 7 6 4 5 5 8 8 6 9 8 7 3 2 5 9 13 20 14 16 19 16 12 12 13 8 8 9 16 14 13 13 13
4 1 1 6 1 1 4 5 6 6 5 7 6 4 8 6 6 5 1 2 4 4 5 5 4 5 3 7 13 9 7 11 12 14 10 10 14 13 13 17 15 13 13 11 11
Wind_Direction
356 352 351 348 342 340 336 333 328 325 321 319 320 322 326 327 310 201 241 235 181 190 180 281 284 243 228 247 260 279 329 275 273 279 206 264 302 233 112 119 103 125 106 61 258
353 349 347 342 339 336 331 328 325 323 320 320 320 321 325 331 283 249 232 165 139 165 245 266 277 297 227 223 247 198 230 258 267 277 286 317 264 293 90 115 42 106 114 147 223
350 347 343 341 337 332 326 323 323 322 320 318 317 319 325 320 302 252 144 156 174 197 274 296 296 290 269 233 238 244 222 257 274 279 297 302 317 330 118 21 188 167 142 171 208
348 345 343 338 335 329 324 321 322 321 320 317 316 319 322 270 350 99 167 166 173 245 244 270 280 305 311 285 263 229 246 244 266 281 307 299 311 326 7 199 177 179 147 151 222
346 343 340 335 330 324 322 319 318 318 317 315 315 321 298 250 249 166 171 186 201 173 221 226 260 256 255 263 299 268 258 258 266 290 288 307 302 287 313 157 163 173 150 166 200
341 340 338 333 326 322 321 315 315 312 314 309 309 319 254 259 236 158 184 174 235 176 224 231 241 244 258 288 304 271 295 296 294 288 287 298 291 295 283 168 176 180 182 175 186
337 335 335 330 324 322 318 316 311 308 309 306 299 241 263 243 267 178 185 216 223 197 235 241 245 288 334 327 292 300 288 295 292 263 252 265 311 276 255 279 168 183 190 191 174
337 336 332 328 323 323 316 313 302 296 292 318 181 249 253 257 265 242 243 250 244 263 252 296 7 356 355 296 318 312 312 272 265 251 241 168 260 278 279 271 276 195 176 171 180
339 334 330 327 324 321 317 309 296 276 253 170 195 229 266 290 233 232 255 235 212 268 310 300 8 272 315 282 317 287 262 268 275 252 190 150 235 249 258 276 231 176 206 174 178
339 334 328 325 322 323 320 300 292 276 227 202 261 305 277 260 108 10 210 263 278 183 258 240 243 222 298 225 249 278 291 290 297 326 121 186 228 249 259 262 257 219 208 188 177
337 333 328 324 320 324 339 342 346 16 241 238 212 245 298 133 114 264 257 196 266 249 226 252 188 233 239 226 234 259 285 306 318 321 24 306 306 318 319 315 298 303 257 227 185
333 330 327 324 319 317 258 292 50 250 300 264 257 254 262 270 275 211 205 193 223 249 253 287 235 238 243 272 276 276 335 325 321 315 357 328 318 308 287 270 258 253 273 245 229
330 330 329 327 318 311 254 62 282 23 282 289 235 216 234 218 232 264 149 200 219 224 257 223 263 263 222 304 343 333 329 314 288 301 325 352 326 301 275 245 253 254 234 243 195
329 331 332 334 343 345 307 359 342 38 324 260 185 232 115 221 236 224 239 188 228 249 264 248 265 283 262 249 284 295 290 299 307 11 293 15 303 291 277 295 226 236 243 228 204
325 330 331 328 297 302 332 335 345 49 7 161 145 137 197 192 115 192 224 198 249 257 244 261 275 291 240 254 236 236 293 303 318 344 10 296 337 286 303 311 236 239 241 112 114
319 323 339 341 224 259 294 317 357 25 249 145 139 180 181 211 259 101 177 221 217 249 277 267 284 281 312 299 344 296 286 322 346 38 316 266 179 288 277 244 57 74 66 75 126
314 310 310 296 240 334 315 324 21 223 259 147 194 177 201 184 219 150 177 233 206 231 266 278 258 260 237 239 303 320 54 333 336 7 245 301 288 236 272 298 121 141 168 159 141
313 304 252 218 238 272 326 346 252 289 47 33 20 344 310 176 191 171 162 215 223 230 272 274 317 262 198 186 185 263 160 162 256 283 287 334 296 301 276 20 64 100 134 154 161
311 277 243 236 219 243 6 261 251 351 28 5 333 270 282 233 13 268 185 201 223 191 180 297 291 348 28 97 122 282 294 227 196 293 3 271 304 57 21 27 8 14 3 32 206
324 286 256 182 159 95 77 269 299 53 19 4 340 329 339 347 187 214 258 3 1 83 98 8 330 15 330 7 267 167 229 356 348 270 277 306 311 248 14 356 3 358 349 9 67
274 258 214 127 101 83 209 236 324 73 40 5 4 338 342 360 346 349 17 42 1 0 48 31 120 296 351 288 272 350 252 265 148 159 178 261 276 211 18 10 336 33 278 326 132
259 239 181 105 100 225 222 266 284 350 108 48 344 313 321 334 328 338 7 47 357 358 17 177 210 316 276 298 308 290 263 188 138 269 234 179 270 287 17 92 56 32 356 337 10
256 185 170 121 215 252 277 265 263 30 343 8 334 350 335 337 352 337 343 93 28 63 49 327 345 351 327 311 14 348 343 333 279 107 209 185 265 293 114 34 62 56 346 339 326
281 177 152 193 270 320 297 293 255 147 165 306 313 332 341 330 316 294 311 305 152 119 161 98 172 168 219 284 324 318 317 319 357 30 288 256 268 292 329 340 346 56 256 260 32
245 261 149 196 228 211 230 302 324 321 139 100 330 263 257 287 322 313 313 355 339 155 140 115 201 303 300 312 316 309 308 308 311 296 254 261 293 293 296 280 243 244 45 44 30
290 2 340 304 351 356 205 244 280 289 311 220 186 227 293 356 337 10 20 31 49 337 357 350 265 304 301 298 282 290 288 282 293 298 299 310 305 292 291 14 56 39 44 37 19
277 332 94 307 271 251 267 273 236 287 308 307 325 53 18 37 9 345 9 283 298 325 336 342 12 15 269 310 321 299 257 275 276 280 274 277 271 261 61 59 46 35 29 32 18